Theta_e
322 321 321 322 322 322 322 323 323 323 324 324 324 323 322 321 320 319 319 322 322 322 322 320 319 319 317 318 317 315 313 315 316 321 322 323 323 324 326 327 327 324 321
321 321 321 322 321 321 322 323 324 323 324 324 325 323 323 323 321 320 320 324 323 322 320 322 319 322 318 317 316 314 314 316 318 318 321 322 321 322 322 323 322 322 320
321 321 321 320 320 320 321 323 324 323 323 324 323 323 326 327 325 321 323 323 321 319 319 319 319 321 319 317 316 315 316 319 322 320 318 321 320 320 319 319 319 318 319
322 322 321 321 321 321 321 322 323 324 323 323 322 324 326 326 323 324 323 322 320 320 321 321 324 323 320 318 317 316 318 320 321 319 318 317 318 318 318 316 315 318 317
323 323 322 321 321 321 322 322 323 323 323 323 324 323 325 324 324 323 323 320 320 323 323 323 324 323 321 320 320 321 320 318 319 318 316 316 315 315 314 316 312 313 313
322 323 324 323 323 322 321 322 321 321 323 323 321 322 322 320 307 312 318 320 320 318 320 321 322 319 319 314 315 316 318 319 319 317 316 314 314 314 315 313 312 310 307
323 325 327 326 323 322 322 322 320 319 319 318 319 319 318 314 303 307 312 319 318 318 317 320 321 323 320 321 311 313 312 312 316 320 317 316 315 315 314 313 313 312 310
323 325 327 324 322 323 321 320 318 317 317 316 320 318 316 312 301 303 311 322 318 318 318 321 320 320 319 320 319 318 318 319 319 321 320 318 317 317 316 316 312 310 310
322 326 325 323 323 322 320 318 318 319 316 316 318 316 314 316 302 302 317 322 321 320 320 321 318 319 304 306 318 315 313 311 306 306 305 303 303 305 311 315 311 309 307
323 324 324 323 323 322 319 318 317 319 316 316 316 315 309 317 301 304 315 320 319 318 318 317 309 313 300 305 318 316 313 313 313 312 311 308 310 307 307 315 314 310 309
323 324 323 323 322 321 319 317 317 317 316 314 313 314 316 317 312 302 307 319 317 316 317 316 313 299 299 301 308 318 313 315 311 316 315 315 316 315 314 313 313 312 308
323 322 322 321 324 322 319 317 318 317 315 316 312 316 319 318 306 301 304 305 309 317 316 316 308 297 298 300 307 300 301 310 317 315 314 314 314 316 315 313 312 312 312
319 320 321 322 323 321 319 317 317 317 319 317 315 316 318 317 313 299 300 298 303 315 317 306 297 296 297 300 299 301 305 317 316 315 314 314 313 313 312 313 313 312 309
317 318 320 322 320 320 320 319 318 318 321 319 318 315 319 316 315 314 311 308 303 307 304 306 305 305 305 306 309 313 319 318 316 316 315 314 311 310 311 311 309 309 308
318 319 319 321 321 320 319 317 319 319 318 318 316 315 318 315 315 309 311 311 311 309 310 314 315 315 313 315 318 320 319 318 317 316 316 316 314 312 311 311 309 306 307
318 318 318 319 320 321 316 311 295 300 304 305 304 311 315 306 298 297 299 297 298 298 309 314 315 316 316 317 319 319 319 314 316 316 316 316 316 315 312 310 309 308 307
319 318 318 317 320 318 316 315 312 305 299 299 298 300 304 303 295 295 295 293 294 300 310 313 316 316 317 318 319 318 317 317 315 316 315 315 316 317 312 311 310 309 306
320 308 319 319 319 318 317 316 313 312 313 313 298 301 296 295 294 294 293 298 304 305 310 311 312 315 316 317 317 312 316 315 315 314 314 314 314 315 313 314 314 311 310
321 320 321 321 320 316 317 313 312 310 312 313 308 301 295 292 292 292 294 313 310 308 309 311 311 313 314 316 315 313 313 315 316 315 315 315 315 314 313 314 312 298 302
321 311 315 322 320 318 316 314 310 308 308 311 313 313 303 304 308 307 306 312 314 312 312 312 313 313 313 314 314 314 312 309 311 315 316 316 315 315 315 313 311 309 306
319 316 309 322 321 321 318 316 314 311 309 310 314 311 298 314 314 313 311 311 315 317 317 316 315 315 315 313 313 312 312 312 312 313 315 315 314 312 314 314 312 311 310
319 318 317 320 321 321 321 320 317 314 311 310 310 309 291 314 317 316 316 314 315 318 320 320 319 319 319 318 316 314 313 313 312 313 314 314 312 312 312 311 310 308 307
319 319 317 318 318 309 311 321 320 318 316 314 312 309 302 310 317 317 317 318 317 317 319 320 320 320 321 321 321 320 318 317 317 316 315 314 315 314 313 311 311 309 306
319 319 318 318 317 315 315 316 319 308 319 319 317 314 308 311 315 318 319 319 319 319 319 320 321 321 321 321 322 322 323 322 319 318 317 316 315 311 314 313 312 311 309
324 319 319 319 318 316 315 315 314 316 316 320 320 319 316 312 313 316 318 319 319 319 319 320 321 321 321 321 322 322 314 299 315 309 316 316 315 314 314 313 312 311 308
317 320 321 320 319 317 316 316 315 315 315 316 317 319 319 316 315 315 316 317 318 318 319 320 320 321 321 321 321 313 300 297 302 295 315 315 315 314 313 312 310 310 306
Wind_Speed
7 6 7 6 6 6 5 4 4 4 5 5 5 5 5 5 4 3 3 4 4 4 4 4 4 4 3 3 2 2 2 3 6 4 5 4 3 5 5 9 13 13 14
7 7 6 6 6 5 4 4 4 4 4 5 5 5 5 5 5 5 4 3 4 4 4 4 5 3 3 2 3 3 3 2 5 7 2 2 5 6 6 10 10 13 15
7 7 6 6 6 5 5 4 4 5 5 4 4 5 5 6 5 4 3 4 4 3 4 3 3 4 3 1 3 4 4 4 6 7 4 3 4 6 9 9 13 15 12
7 7 7 6 6 5 4 4 4 4 6 4 3 4 4 4 4 4 3 3 3 3 3 2 3 4 5 5 4 5 7 9 9 7 6 6 5 6 8 11 11 11 12
8 7 7 6 6 5 4 4 3 4 5 5 4 4 4 5 3 5 4 4 3 3 2 3 4 5 7 6 6 6 8 8 8 8 7 6 8 8 10 9 11 9 8
7 8 6 7 6 5 5 5 4 5 5 6 5 5 5 3 3 7 6 5 4 4 4 4 4 6 6 6 9 7 6 11 9 8 7 10 8 9 9 11 12 10 5
7 6 7 8 7 6 5 5 5 5 5 6 5 6 5 4 5 6 7 4 4 3 4 4 4 2 3 3 5 8 6 7 9 11 13 12 13 12 11 10 10 5 5
7 8 8 7 6 6 6 6 5 4 6 5 5 5 5 3 3 6 6 4 4 4 3 3 4 5 5 6 6 7 6 7 8 8 10 11 12 11 11 10 10 10 9
7 8 7 7 7 7 6 6 4 5 4 4 4 5 5 2 3 4 8 5 5 4 3 4 4 6 8 10 9 10 9 8 11 16 15 16 16 15 13 11 9 11 5
9 7 9 8 8 8 7 6 3 4 5 5 5 4 5 2 3 8 7 4 4 3 4 4 6 7 9 10 9 9 10 9 12 13 14 15 14 11 10 6 10 10 6
9 7 7 7 8 7 7 3 5 6 6 5 5 4 4 4 4 6 7 3 4 3 2 2 2 8 10 11 11 8 8 11 13 12 10 9 9 8 6 4 5 7 5
8 8 7 7 7 6 7 5 5 7 6 6 5 4 3 3 5 3 6 4 5 4 2 2 3 8 11 13 11 14 14 11 9 9 9 8 7 5 4 4 6 5 3
8 8 7 8 7 7 7 6 5 5 6 5 4 3 3 2 2 1 4 8 9 4 2 5 8 10 13 13 17 15 11 9 9 8 8 6 4 4 5 4 4 5 5
8 8 8 9 8 6 4 5 6 5 5 5 5 4 3 3 2 2 3 4 7 6 7 5 6 7 9 9 9 7 6 7 8 8 7 4 4 3 3 3 3 3 2
8 8 8 7 9 7 4 3 5 4 6 6 4 4 5 4 3 6 6 4 4 6 6 3 3 5 6 7 5 5 6 6 8 6 6 6 5 3 2 2 3 2 2
8 7 8 8 6 6 6 4 7 2 8 7 10 7 2 7 10 9 9 10 10 10 3 3 3 4 6 7 6 6 5 5 5 6 5 7 7 6 4 2 2 3 4
11 9 7 8 7 7 6 6 5 4 5 5 8 11 10 8 12 11 10 9 10 5 3 3 4 4 4 5 5 8 6 4 4 4 5 6 6 7 7 4 4 3 3
10 13 10 8 8 7 7 6 4 5 5 3 1 4 9 10 12 11 11 10 2 1 2 4 5 6 5 6 5 4 5 5 4 4 5 5 5 5 5 5 6 6 5
10 9 9 8 8 9 7 5 5 5 5 4 3 2 7 7 6 9 11 3 4 4 3 4 4 6 6 7 5 4 4 5 5 5 5 6 7 6 6 5 5 7 6
10 13 11 9 7 7 7 6 5 5 5 5 5 5 5 4 4 5 5 5 5 4 4 5 5 5 6 6 6 6 5 5 5 6 7 7 7 7 8 7 6 6 7
8 8 10 8 8 9 8 9 7 6 6 5 5 6 11 9 9 9 9 8 7 7 7 7 6 6 6 7 6 6 6 6 6 6 7 7 7 7 8 8 8 8 7
8 10 8 8 8 8 8 8 7 7 7 7 5 4 9 7 7 8 9 9 10 9 7 7 7 7 8 9 8 8 8 8 7 8 8 7 7 8 7 8 8 8 8
6 8 10 8 7 8 6 7 8 8 8 8 8 6 7 9 7 8 9 9 9 9 8 8 8 8 8 8 8 9 9 10 10 9 10 10 10 10 10 10 10 9 8
4 7 9 7 7 8 8 8 7 8 9 9 9 9 9 10 11 12 11 10 9 9 9 10 10 13 11 10 9 10 10 10 8 10 13 10 9 9 10 10 10 12 10
10 2 4 5 6 5 6 8 7 6 7 8 8 8 8 9 10 11 11 10 10 10 12 12 11 14 17 17 16 16 14 13 13 11 9 12 12 13 11 11 10 10 9
13 12 9 5 4 1 1 4 5 6 6 7 7 8 9 9 10 10 10 10 11 11 13 11 14 20 20 18 22 20 14 15 14 14 11 10 11 10 9 11 12 8 9
Wind_Direction
133 130 128 135 134 145 152 152 158 151 151 148 163 158 174 169 180 168 201 192 182 167 168 185 223 199 205 192 191 149 142 115 118 52 26 52 60 56 108 130 136 129 125
141 134 135 133 142 138 152 155 140 149 151 158 158 162 174 170 173 190 199 191 185 183 192 185 242 191 234 180 169 161 152 123 123 129 114 74 55 77 80 114 121 119 121
133 131 135 147 138 149 152 137 147 156 144 143 151 190 195 172 174 201 193 181 183 184 183 207 223 159 138 141 139 134 114 102 119 126 112 82 75 92 87 91 104 103 110
138 140 151 154 151 152 148 143 158 164 148 150 175 183 168 143 143 140 143 147 144 165 165 145 148 132 123 124 115 121 123 119 119 112 104 104 107 101 101 103 103 109 116
144 149 162 146 141 141 147 145 152 146 155 151 149 131 130 129 133 129 136 127 143 119 99 130 130 116 98 120 132 138 121 124 124 119 116 117 124 124 127 121 106 104 89
149 164 154 129 139 147 145 146 135 126 129 117 114 117 114 89 95 119 124 121 109 101 111 76 68 115 145 135 115 126 146 142 142 136 139 135 125 125 133 134 130 132 119
148 149 152 146 145 155 149 144 130 121 116 117 117 110 86 96 75 122 120 115 118 124 117 126 132 168 147 127 146 151 145 125 143 150 147 150 140 142 133 130 131 111 110
151 158 151 144 143 146 149 148 127 126 127 132 111 105 110 80 63 139 118 120 107 109 122 121 115 117 122 120 103 99 113 127 131 132 139 138 133 135 127 124 113 99 92
156 161 151 149 155 149 157 153 137 130 123 122 125 130 121 113 67 153 100 88 85 76 81 104 110 110 121 113 106 100 93 79 67 99 105 106 109 114 128 125 122 125 114
168 165 168 159 159 161 153 149 134 122 119 114 109 113 125 128 107 114 106 110 101 87 64 71 94 127 129 114 108 108 105 109 110 109 106 99 106 110 105 115 144 141 131
166 156 159 161 154 151 135 137 135 126 115 108 112 126 126 131 101 114 123 130 133 117 108 90 107 126 118 107 101 103 112 112 108 111 111 115 121 113 122 123 123 145 135
155 151 144 138 142 142 136 127 129 126 118 129 131 127 102 88 83 157 162 133 132 113 125 112 123 132 119 106 100 115 110 107 113 116 119 124 128 126 139 143 143 142 112
142 150 145 142 133 141 140 138 129 128 138 146 140 143 128 107 113 340 164 119 99 96 86 93 118 118 106 105 124 127 122 126 124 125 132 134 142 136 118 101 101 105 81
146 144 147 145 136 132 128 143 145 153 156 163 157 168 142 139 152 121 116 100 100 91 103 102 110 105 99 122 127 130 126 132 138 143 152 121 120 133 128 136 125 125 112
148 152 153 149 150 142 130 146 167 182 169 165 162 149 157 168 195 157 152 143 134 117 108 101 101 115 121 142 145 137 130 132 139 147 155 153 151 141 146 136 110 121 131
147 156 157 153 150 149 153 131 46 73 182 149 153 154 167 148 151 156 162 145 138 140 83 125 127 129 143 152 153 151 147 154 150 146 146 155 164 180 169 132 133 176 186
158 161 156 156 160 156 157 165 163 38 91 165 173 172 165 170 158 161 161 137 147 131 118 144 149 148 151 160 158 168 170 167 134 137 146 164 173 182 178 189 200 192 222
163 160 162 168 169 165 172 179 161 159 167 185 175 170 189 170 162 154 136 112 122 229 143 160 165 171 174 186 177 162 166 161 168 160 162 171 182 183 181 199 202 211 219
161 169 170 169 174 175 172 166 175 165 174 153 125 109 94 99 113 136 165 163 169 191 182 178 172 176 181 187 194 183 175 182 180 179 186 190 195 190 209 212 208 210 191
171 174 169 170 166 168 171 173 178 180 176 172 180 181 129 117 163 179 197 201 184 186 186 191 186 181 187 188 192 193 190 187 192 195 202 203 201 201 214 210 211 211 210
168 164 175 168 174 181 179 182 185 182 187 185 196 174 174 175 185 187 192 203 205 203 199 199 195 195 190 191 190 188 194 201 198 203 205 206 199 205 214 216 220 219 219
166 166 176 180 176 184 189 186 183 183 185 189 197 169 174 204 190 195 200 204 210 211 204 202 206 203 200 198 196 198 204 210 203 201 206 207 203 213 212 215 219 219 218
172 166 177 181 175 176 171 188 187 191 194 196 194 173 177 201 205 203 206 209 205 207 205 201 207 211 208 209 207 206 210 214 211 202 210 214 212 213 211 217 221 220 211
189 184 179 185 175 178 179 186 195 204 201 198 193 194 190 199 207 211 211 207 207 211 209 209 211 213 215 211 212 212 217 216 204 206 206 211 217 220 224 221 221 221 222
29 49 181 192 181 195 182 183 182 185 198 208 210 209 203 203 209 215 213 210 210 209 212 212 215 219 218 217 217 215 214 206 210 203 199 212 216 214 213 222 223 221 214
35 36 34 31 12 24 198 210 191 181 190 202 212 211 215 210 213 214 214 210 211 212 214 214 219 219 222 223 225 222 211 208 209 209 210 212 217 221 219 223 224 217 212